Content
SEND FEEDBACK

Daily
Averages
Monthly
Summary
United States of America

WILMINGTON, NORTH CAROLINA


Home > North America > United States > North Carolina
Elevation: 72 feet     Latitude: 34 16N     Longitude: 077 54W

WEATHER
 
SELECT A DAY
Number of Records: 213,315;   Date Range: 1/1/95 - 11/25/14
 
SHARE

PRINT THIS DATA

[ ← Previous Day ]
WEATHER ALMANAC - APRIL 18, 2014
[ Next Day → ]
[ °C ]   °F
Weather ElementAverageHighLow
Temperature56.4 °F66 °F (2:53 pm)45 °F (6:53 am)
Dewpoint47.9 °F55 °F (5:53 pm)39.2 °F (7:53 am)
Humidity74.5 %94 % (10:53 pm)50 % (1:33 pm)
Barometer30.28 in30.38 in (1:53 am)30.15 in (11:53 pm)
Wind Speed10.9 mph16.1 mph (9:53 pm)
Wind Gust21.9 mph (1:53 pm)
Weather ElementAverage
Visibility8.2 mi
Wind DirectionENE (59.7 °)

Weather ElementTotal
Precipitation0.67 in
Heating Degree Days9.5 (Base 65)
Growing Degree Days5.5 (Base 50)
Averaged from 32 records on April 18, 2014
WEATHER CONDITIONS BREAKOUT
WIND DIRECTION BREAKOUT
WEATHER BY HOUR - APRIL 18, 2014
[ °C ]   °F
Local TimeTemperatureDewpointHumidityBarometerVisibilityWind DirectionWind SpeedGust SpeedPrecipitationEventsConditions
1:53 AM48.0 °F39.9 °F74 %30.38 in10.0 miNNE (30°)9.2 mphClear
2:53 AM46.9 °F39.9 °F77 %30.38 in10.0 miNNE (20°)10.4 mphMostly Cloudy
3:53 AM46.0 °F39.9 °F79 %30.36 in10.0 miNNE (20°)11.5 mphClear
4:53 AM46.0 °F39.9 °F79 %30.37 in10.0 miNNE (20°)9.2 mphMostly Cloudy
5:53 AM46.0 °F39.9 °F79 %30.35 in10.0 miNNE (20°)9.2 mphMostly Cloudy
6:53 AM45.0 °F39.9 °F82 %30.35 in10.0 miNorth (10°)9.2 mphMostly Cloudy
7:53 AM48.2 °F39.2 °F71 %30.36 in10.0 miNNE (30°)12.7 mphOvercast
8:53 AM50.0 °F41.0 °F71 %30.35 in10.0 miNorth (360°)10.4 mphMostly Cloudy
9:53 AM55.0 °F42.1 °F62 %30.36 in10.0 miNorth (10°)10.4 mphOvercast
10:53 AM59.0 °F43.0 °F55 %30.35 in10.0 miNNE (20°)9.2 mphOvercast
11:53 AM61.0 °F44.1 °F54 %30.34 in10.0 miNorth (360°)9.2 mphOvercast
12:53 PM64.0 °F46.0 °F52 %30.32 in10.0 miNE (40°)15.0 mphOvercast
1:33 PM64.9 °F46.0 °F50 %30.31 in10.0 miNE (50°)11.5 mphOvercast
1:53 PM64.0 °F48.0 °F56 %30.30 in8.0 miNE (50°)11.5 mph21.9 mph0.00 inRainLight Rain
2:21 PM64.0 °F50.0 °F60 %30.29 in8.0 miNNE (20°)11.5 mph0.00 inOvercast
2:53 PM66.0 °F48.9 °F54 %30.27 in10.0 miNNE (20°)15.0 mph19.6 mph0.00 inOvercast
3:31 PM64.9 °F48.9 °F56 %30.26 in10.0 miNE (40°)13.8 mphOvercast
3:53 PM63.0 °F51.1 °F65 %30.23 in10.0 miNNE (30°)12.7 mphOvercast
4:53 PM63.0 °F52.0 °F67 %30.22 in10.0 miNE (50°)10.4 mph0.00 inRainLight Rain
5:53 PM60.1 °F55.0 °F83 %30.22 in6.0 miNNE (20°)9.2 mph0.01 inRainLight Rain
6:07 PM60.1 °F55.0 °F83 %30.22 in10.0 miNNE (20°)6.9 mph0.00 inOvercast
6:36 PM60.1 °F55.0 °F83 %30.21 in10.0 miNNE (20°)8.1 mph0.00 inOvercast
6:53 PM59.0 °F54.0 °F83 %30.19 in10.0 miNNE (30°)13.8 mph0.00 inRainLight Rain
7:53 PM57.2 °F53.6 °F88 %30.19 in5.0 miNE (50°)9.2 mphRainRain
8:37 PM57.0 °F54.0 °F89 %30.23 in3.0 miCalm0.05 inRainRain
8:53 PM57.0 °F54.0 °F89 %30.24 in2.0 miNorth (360°)4.6 mph0.17 inRainHeavy Rain
9:07 PM55.9 °F53.1 °F90 %30.23 in2.5 miNNE (30°)12.7 mph0.06 inRainRain
9:22 PM55.9 °F53.1 °F90 %30.23 in3.0 miNNE (30°)11.5 mph0.14 inRainRain
9:53 PM55.0 °F52.0 °F89 %30.21 in5.0 miNNE (30°)16.1 mph0.24 inRainLight Rain
10:53 PM53.6 °F51.8 °F94 %30.17 in10.0 miNE (40°)15.0 mphRainLight Rain
11:10 PM54.0 °F51.1 °F90 %30.16 in7.0 miNE (40°)16.1 mph0.00 inOvercast
11:53 PM54.0 °F51.1 °F90 %30.15 in4.0 miNE (40°)13.8 mph0.00 inRainLight Rain
Hourly data recorded from KILM, located miles away from Wilmington, North Carolina







STORIES FROM OUR PARTNERS